Showing default

HAIYANG 2A, 37781

Orbit data source: Space-Track

HAIYANG 2A, 37781 is a Chinese payload satellite in SSO that was launched on Mon, 15 Aug 2011 UTC via a CHANG ZHENG 4B launch vehicle from the Taiyaun Space Center, China (TSC). Payload-class satellites include a variety of spacecraft equipped with specific instruments for various scientific and technological missions. These include communications satellites like Starlink; space stations such as the ISS; scientific satellites like the Hubble; Earth observation satellites from companies like Planet Labs, Umbra, and HawkEye 360; GPS; miniature CubeSats for education and research; and military/defense satellites.

Loading next visibility...
Identifier
37781, 2011-043A
Orbit
SSO
Country
Flag of CNCN / PRC
Related business
Manufacturer
SISE
Mission
Operational Civil Science
Bus & Motor
CAST-968?, Unknown motor
Mass
~1,500 kg wet, ~1,500 kg dry
Launch date (UTC)
2011-08-15 (15 years ago)
Launch vehicle
CHANG ZHENG 4B
Launch site
Taiyaun Space Center, China (TSC)
Object type
Payload
Rocket body
Debris
Shape & HBR
Box + 2 Pan, 2.0 m
Radar Cross Section
2.315 m², Large (>1 m²)

Expand to show TLE details & history
Last TLE update: 1 day ago

TLE from 1 day ago
0 HAIYANG 2A
1 37781U 11043A   26172.47922443  .00000225  00000-0  28474-3 0  9995
2 37781  99.3397 175.0606 0005810  82.6456 277.5353 13.74333314747246
Epoch: 2026-06-21T11:30Z
TLE epoch observation values (Epoch: 2026-06-21T11:30:04.990Z)
Latitude
-0.00006°
Longitude
92.86091°
Altitude
986.327 km
Speed
7.359 km/s
True Right ascension
11h 40m 14s
True Declination
0° 00' 00"
Sunlit
Object was in daylight at epoch
Visualization orbit readout
Latitude
Unknown
Longitude
Unknown
Altitude
Unknown
Speed
Unknown
Apparent Right ascension
Unknown
Apparent Declination
Unknown
Sunlit
N/A
Visualization observer readout
Local Sidereal Time
23:27:09
Azimuth
Unknown
Elevation
Unknown
Doppler factor
Unknown
Orbital elements
Apogee altitude
985.581 km
Perigee altitude
977.029 km
Semi-major axis
7,359.442 km
Eccentricity
0.00058
Inclination
99.3397°
RAAN
175.0606°
Arg. of periapsis
82.6456°
True anomaly
277.46929°
Mean anomaly
277.5353°
Eccentric anomaly
277.5023°
Mean motion
3.43776 °/min
Orbital period
104.72 mins
BSTAR
0.00028474
Loading maneuver chart data...
Computing Atmospheric mass density...
Loading historical data...
Loading historical data...
Loading historical data...
Loading historical data...
Loading historical data...
Loading historical data...
Loading historical data...

Documentation

Showing up to 5 results
|